Starlink 32812

operational
NORAD ID: 63038 Int'l Des: 2025-034 Owner: SPXS Country: US Constellation: starlink
LEOCIRCULAR

关于 Starlink 32812

正在加载描述...

实时位置

正在加载3D地球...

即将过境

高度历史

Altitude vs Time

uPlot chart will show altitude changes over time

两行轨道根数

1 63038U 25034K 25351.25195873 .00021003 00000-0 71958-3 0 9999
2 63038 53.1594 281.1522 0001272 84.0877 276.0269 15.30184790 46466
Epoch: Dec 17, 2025 • Age: 15 hours

当前状态

高度 475.2 km
速度 7.63 km/s
星下点 10.48°N, 50.41°E
发射日期 Feb 18, 2025
运行时间 0.8 years
类型 internet

技术详情

分类 Payload
质量 730.00 kg
干质量 700.00 kg
总质量 730.00 kg
长度 0.30 m
直径 4.10 m
跨度 29.00 m
形状 Box + pan
制造商 SPXS
平台类型 Starlink V2M
阶段状态 In Orbit
所有者/国家 SPXS/US

大型星座

Loading constellations...